OBJECT_NAME,OBJECT_ID,EPOCH,MEAN_MOTION,ECCENTRICITY,INCLINATION,RA_OF_ASC_NODE,ARG_OF_PERICENTER,MEAN_ANOMALY,EPHEMERIS_TYPE,CLASSIFICATION_TYPE,NORAD_CAT_ID,ELEMENT_SET_NO,REV_AT_EPOCH,BSTAR,MEAN_MOTION_DOT,MEAN_MOTION_DDOT STARLETTE,1975-010A,2026-09-12T03:08:57.149664,13.82351591,.02056495,49.8232,121.4128,350.2735,9.4206,0,U,7646,999,60656,.17567282E-4,-.121E-5,0 LAGEOS 1,1976-039A,2026-09-11T16:23:43.725408,6.38664823,.0044605,109.8164,208.9362,283.7274,106.8454,0,U,8820,999,91866,0,-.1E-6,0 AJISAI (EGS),1986-061A,2026-09-12T07:10:56.999712,12.44517374,.00113088,50.0073,239.5288,42.1276,165.6422,0,U,16908,999,49123,-.10052903E-3,-.112E-5,0 COSMOS 1989 (ETALON 1),1989-001C,2026-09-12T04:43:46.877376,2.13155993,.00233937,65.0010,69.2225,217.3816,275.3510,0,U,19751,999,29322,0,-.2E-7,0 COSMOS 2024 (ETALON 2),1989-039C,2026-09-12T06:25:24.807936,2.13204634,.00208775,64.8771,307.5316,212.1442,147.5273,0,U,20026,999,29035,0,-.38E-6,0 LAGEOS 2,1992-070B,2026-08-21T09:32:35.938752,6.47294115,.01380236,52.6389,225.4441,215.8902,299.2308,0,U,22195,999,79964,0,-.9E-7,0 STELLA,1993-061B,2026-09-12T07:33:54.250272,14.27472368,.00061452,98.7640,319.8426,353.5807,51.5838,0,U,22824,999,71720,.10104991E-4,-.2E-6,0 LARETS,2003-042F,2026-09-12T06:21:05.766048,14.63881002,.00133126,98.4260,59.3500,121.7520,238.4980,0,U,27944,999,22610,.10414825E-4,.4E-7,0 LARES,2012-006A,2026-09-12T05:55:08.497632,12.54932243,.00107353,69.4908,143.5456,309.3246,50.6829,0,U,38077,999,66799,.14068796E-3,-.16E-6,0 LARES-2,2022-080A,2026-09-09T05:15:27.832032,6.38965241,.00055498,70.1483,276.5005,317.5287,42.5066,0,U,53105,999,9703,0,.13E-6,0